Regional Weather Roundup
Issued by NWS

Home | Current Version | Previous Version | Graphics & Text | Print | Product List | Glossary On
Versions: 1 2 3 4 5 6 7 8 9 10 11 12 13 14 15 16 17 18 19 20 21 22 23 24 25 26 27 28 29 30 31 32 33 34 35 36 37 38 39 40 41 42 43 44 45 46 47 48 49 50
000
ASUS43 KIND 220059
RWRIN

WEATHER ROUNDUP FOR INDIANA
NATIONAL WEATHER SERVICE INDIANAPOLIS IN
900 PM EDT WED JUN 21 2017

NOTE: "FAIR" INDICATES FEW OR NO CLOUDS BELOW 12,000 FEET WITH NO
SIGNIFICANT WEATHER AND/OR OBSTRUCTIONS TO VISIBILITY.

* - STATION DOES NOT REPORT WEATHER SUCH AS PRECIPITATION OR FOG.

+ - STATION NOT QUALITY CONTROLLED BY THE NATIONAL WEATHER SERVICE.
    USE DATA WITH CAUTION...ESPECIALLY DEWPOINT AND RELATIVE
    HUMIDITY OBSERVATIONS.

INZ001>003-010>013-019-020-220200-
NORTHWEST INDIANA

CITY           SKY/WX    TMP DP  RH WIND       PRES   REMARKS
GARY /AIRPORT/ MOCLDY    73  59  60 E3        29.91R
KNOX *+        CLOUDY    75  52  43 CALM      29.92R
MICHIGAN CITY+ PTCLDY    73  54  49 CALM      29.92S
MONTICELLO +   CLEAR     79  66  64 CALM      29.90S
RENSSELAER +   CLEAR     79  59  50 S3        29.91S

$$

LMZ046-743>745-220200-
SOUTHERN LAKE MICHIGAN

STATION/POSITION TIME  TEMP    WIND        PRES    WAVE
                       AIR SEA DIR/SP/G            HT
                 (UTC) (F)     (DEG/KT/KT) (MB)    (FT)
BURNS HARBOR     0040   69      70/  8/ 10 1013.2R
MICHIGAN CITY    0030   69      50/  8/  8   N/A
5NW MICH CITY    0050   69 68   70/  6/  8   N/A     1

$$

INZ004-005-014>016-021>024-220200-
NORTH CENTRAL INDIANA

CITY           SKY/WX    TMP DP  RH WIND       PRES   REMARKS
ELKHART        CLOUDY    75  54  46 CALM      29.93R
GOSHEN         CLOUDY    74  59  59 CALM      29.93R
SOUTH BEND     CLOUDY    75  55  49 S5        29.93R

$$

INZ006>009-017-018-025>027-220200-
NORTHEAST INDIANA

CITY           SKY/WX    TMP DP  RH WIND       PRES   REMARKS
FORT WAYNE     MOCLDY    76  61  59 SE3       29.94R
KENDALLVILLE + CLOUDY    74  56  53 CALM      29.94S

$$

INZ028-029-035-036-043>045-051>053-220200-
WEST CENTRAL INDIANA

CITY           SKY/WX    TMP DP  RH WIND       PRES   REMARKS
CRAWFORDSVL +  MOCLDY   N/A N/A N/A SW3       29.92R
LAFAYETTE      PTCLDY    80  68  66 S3        29.89S
TERRE HAUTE    PTCLDY    81  68  64 SW7       29.92S

$$

INZ030>032-037>040-046>048-054>057-064-065-220200-
CENTRAL INDIANA

CITY           SKY/WX    TMP DP  RH WIND       PRES   REMARKS
COLUMBUS       PTCLDY    81  63  54 SW14      29.95R
GREENWOOD *+   CLOUDY    83  67  57 SW8       29.95R
INDIANAPOLIS   CLOUDY    83  70  64 SW9       29.92S
-EAGLE CREEK   CLOUDY    84  69  60 SW5       29.92R
KOKOMO +       PTCLDY    79  68  69 S3        29.93S
MT COMFORT *+  CLOUDY    84  68  58 SW7       29.93S
SHELBYVILLE    CLOUDY    82  67  60 SW10      29.93R

$$

INZ033-034-041-042-049-050-058-059-220200-
EAST CENTRAL INDIANA

CITY           SKY/WX    TMP DP  RH WIND       PRES   REMARKS
MUNCIE         PTCLDY    83  66  56 CALM      29.93F
RICHMOND +     MOCLDY    79  68  69 SW16      29.97R

$$

INZ060-061-067>069-081>083-085>088-220200-
SOUTHWEST INDIANA

CITY           SKY/WX    TMP DP  RH WIND       PRES   REMARKS
EVANSVILLE     PTCLDY    83  66  56 S9        29.95F
HUNTINGBURG *+ PTCLDY    81  68  64 S7        29.96F

$$

INZ062-063-066-070>080-084-089>092-220200-
SOUTH CENTRAL AND SOUTHEAST INDIANA

CITY           SKY/WX    TMP DP  RH WIND       PRES   REMARKS
BLOOMINGTON    MOCLDY    81  68  64 S7        29.95R
MADISON *+     CLEAR     81  64  57 SW3       30.00R
SEYMOUR +      MOCLDY    81  70  69 SW7       29.95S

$$





USA.gov is the U.S. government's official web portal to all federal, state and local government web resources and services.